x

9442396 - La Push, Wa (lapw1) Weather Station

4:36 - Fri 21st Jul 2017 All times are PDT. -7 hours from GMT.

  • Wind
    7mph, 11mph gusts
  • Sea Temp 51°f
  • Air Temp 61°f
  • Sea Pressure 1021.4mb
  • 9442396 - La Push, Wa
  • 9442396 - La Push, Wa

More Historic Weather Station data

Upgrade to MSW Pro to gain access to the past 30 days of data for over 8000 Wavebouys and Weather Stations around the globe.

Join Pro

Comparision Forecast

View Surf forecast
   
ven. 07/21 4:36 7 11 mph 1021.4mb 51f 61f
4:30 6 10 mph 1021.5mb 51f 61f
4:24 8 11 mph 1021.5mb 51f 61f
4:18 7 13 mph 1021.6mb 51f 61f
4:12 8 10 mph 1021.6mb 51f 60f
4:06 8 11 mph 1021.7mb 51f 61f
4:00 8 13 mph 1021.7mb 51f 60f
3:36 7 9 mph 1021.7mb 50f 61f
3:30 5 11 mph 1021.8mb 50f 61f
3:24 8 11 mph 1021.7mb 50f 61f
3:18 7 11 mph 1021.7mb 50f 61f
3:12 6 11 mph 1021.8mb 50f 60f
3:06 6 13 mph 1021.8mb 50f 60f
3:00 7 13 mph 1021.9mb 51f 60f
2:36 8 13 mph 1021.9mb 50f 60f
2:30 8 11 mph 1021.9mb 50f 60f
2:24 8 13 mph 1021.9mb 50f 60f
2:18 6 10 mph 1021.9mb 50f 60f
2:12 8 10 mph 1022mb 50f 60f
2:06 8 11 mph 1022mb 50f 59f
2:00 6 10 mph 1022mb 50f 59f
1:36 9 11 mph 1021.9mb 50f 59f
1:30 9 13 mph 1021.9mb 50f 59f
1:24 9 13 mph 1021.8mb 50f 59f
1:18 9 11 mph 1021.8mb 50f 60f
1:12 9 11 mph 1021.8mb 50f 60f
1:06 8 13 mph 1021.7mb 50f 60f
1:00 8 11 mph 1021.6mb 50f 60f
12:36 8 10 mph 1021.5mb 49f 60f
12:30 8 11 mph 1021.5mb 49f 60f
12:24 8 10 mph 1021.4mb 49f 60f
12:18 8 11 mph 1021.4mb 50f 60f
12:12 7 10 mph 1021.4mb 49f 60f
12:06 7 13 mph 1021.4mb 49f 59f
12:00 9 13 mph 1021.4mb 49f 59f
11:36 7 11 mph 1021.4mb 50f 59f
11:30 9 11 mph 1021.5mb 50f 59f
11:24 7 10 mph 1021.4mb 50f 59f
11:18 8 10 mph 1021.4mb 50f 59f
11:12 8 9 mph 1021.4mb 50f 59f
11:06 7 10 mph 1021.4mb 50f 59f
11:00 7 11 mph 1021.4mb 50f 59f
10:36 6 8 mph 1021.5mb 50f 58f
10:30 7 10 mph 1021.4mb 50f 57f
10:24 7 8 mph 1021.4mb 50f 56f
10:18 6 8 mph 1021.5mb 50f 56f
10:12 6 9 mph 1021.5mb 50f 56f
10:06 7 8 mph 1021.5mb 50f 56f
10:00 7 8 mph 1021.4mb 50f 57f
9:36 3 6 mph 1021.4mb 50f 57f
9:30  -  2 mph 1021.2mb 50f 57f
9:24 1 5 mph 1021.1mb 50f 57f
9:18 3 5 mph 1021.1mb 51f 56f
9:12 3 6 mph 1021mb 51f 56f
9:06 5 6 mph 1021mb 51f 56f
9:00 3 7 mph 1021mb 51f 55f
8:36 5 7 mph 1020.8mb 52f 54f
8:30 6 7 mph 1020.7mb 51f 54f
8:24 6 8 mph 1020.7mb 52f 54f
8:18 6 8 mph 1020.7mb 52f 53f
8:12 6 8 mph 1020.6mb 51f 53f
8:06 6 8 mph 1020.6mb 52f 53f
8:00 6 8 mph 1020.5mb 52f 53f
7:36 7 8 mph 1020.5mb 55f 52f
7:30 6 8 mph 1020.6mb 56f 52f
7:24 7 9 mph 1020.5mb 56f 52f
7:18 7 8 mph 1020.5mb 57f 52f
7:12 6 8 mph 1020.5mb 58f 52f
7:06 7 10 mph 1020.4mb 58f 52f
7:00 8 9 mph 1020.4mb 59f 52f
6:36 7 9 mph 1020.4mb 59f 52f
6:30 7 9 mph 1020.3mb 59f 51f
6:24 8 9 mph 1020.2mb 59f 51f
6:18 7 9 mph 1020.2mb 59f 51f
6:12 6 8 mph 1020.2mb 59f 51f
6:06 7 8 mph 1020.3mb 59f 51f
6:00 6 8 mph 1020.3mb 59f 51f
5:36 7 9 mph 1020.1mb 59f 51f
5:30 7 9 mph 1020.1mb 60f 51f
5:24 7 9 mph 1020.1mb 60f 51f
5:18 7 10 mph 1020.1mb 59f 51f
5:12 8 10 mph 1020.1mb 59f 51f
5:06 7 9 mph 1020.1mb 59f 51f
5:00 7 9 mph 1020.1mb 59f 51f
4:36 7 9 mph 1020.2mb 59f 51f
4:30 7 9 mph 1020.3mb 59f 51f
4:24 6 10 mph 1020.3mb 59f 51f
4:18 8 10 mph 1020.1mb 59f 51f
4:12 7 9 mph 1020.2mb 59f 51f
4:06 8 9 mph 1020.1mb 58f 51f
4:00 7 9 mph 1020.1mb 58f 51f
3:36 7 8 mph 1020.2mb 57f 51f
3:30 7 8 mph 1020.2mb 56f 51f
3:24 6 9 mph 1020.3mb 56f 51f
3:18 7 8 mph 1020.4mb 54f 51f
3:12 6 8 mph 1020.4mb 53f 52f
3:06 7 9 mph 1020.5mb 52f 52f
3:00 7 8 mph 1020.5mb 52f 52f
2:36 6 8 mph 1020.7mb 51f 52f
2:30 6 7 mph 1020.7mb 51f 52f
2:24 6 8 mph 1020.7mb 51f 52f
2:18 6 7 mph 1020.8mb 51f 52f
2:12 6 7 mph 1020.8mb 51f 52f
2:06 6 7 mph 1020.8mb 51f 52f
2:00 6 8 mph 1020.8mb 51f 52f
1:36 6 7 mph 1020.9mb 51f 53f
1:30 6 7 mph 1020.9mb 51f 53f
1:24 6 6 mph 1020.9mb 51f 53f
1:18 6 7 mph 1021mb 51f 53f
1:12 6 7 mph 1020.9mb 50f 53f
1:06 6 8 mph 1020.9mb 50f 53f
1:00 6 8 mph 1020.8mb 50f 53f
12:36 5 6 mph 1021mb 50f 54f
12:30 5 6 mph 1021mb 50f 54f
12:24 3 6 mph 1021mb 50f 54f
12:18 6 6 mph 1021mb 50f 54f
12:12 5 7 mph 1020.9mb 50f 54f
12:06 5 6 mph 1020.9mb 50f 55f
12:00 3 5 mph 1020.9mb 50f 55f
jeu. 07/20 11:36 3 5 mph 1021mb 50f 55f
11:30 2 3 mph 1021mb 50f 55f
11:24 2 5 mph 1021.1mb 50f 55f
11:18 3 5 mph 1021.1mb 50f 55f
11:12 2 3 mph 1021mb 51f 55f
11:06 1 2 mph 1021mb 51f 56f
11:00 2 3 mph 1021mb 51f 56f
10:36 2 5 mph 1021mb 51f 56f
10:30 3 3 mph 1021mb 51f 56f
10:24  -  2 mph 1021mb 51f 56f
10:18  -  1 mph 1021mb 51f 56f
10:12  -  2 mph 1021mb 51f 56f
10:06 2 2 mph 1021.1mb 51f 57f
10:00 2 2 mph 1021.1mb 51f 57f
9:36 2 2 mph 1021mb 51f 58f
9:30 1 2 mph 1021mb 51f 59f
9:24 2 2 mph 1020.9mb 51f 58f
9:18 2 2 mph 1020.9mb 50f 58f
9:12  -  1 mph 1020.8mb 50f 59f
9:06  -  1 mph 1020.8mb 50f 59f
9:00 1 3 mph 1020.8mb 50f 59f
8:36 2 5 mph 1020.9mb 50f 60f
8:30 3 5 mph 1020.9mb 50f 60f
8:24 3 5 mph 1020.9mb 50f 60f
8:18 5 6 mph 1021mb 50f 60f
8:12 3 5 mph 1021mb 50f 60f
8:06 3 5 mph 1021mb 50f 61f
8:00 3 5 mph 1021.1mb 50f 61f
7:36 5 6 mph 1021.2mb 50f 61f
7:30 5 6 mph 1021.2mb 50f 61f
7:24 6 6 mph 1021.2mb 50f 61f
7:18 5 6 mph 1021.2mb 50f 61f
7:12 5 6 mph 1021.3mb 49f 60f
7:06 5 6 mph 1021.3mb 50f 60f
7:00 5 6 mph 1021.3mb 50f 60f
6:36 5 7 mph 1021.4mb 49f 60f
6:30 6 8 mph 1021.3mb 49f 60f
6:24 7 8 mph 1021.3mb 49f 60f
6:18 6 7 mph 1021.3mb 49f 60f
6:12 6 7 mph 1021.4mb 49f 60f
6:06 6 7 mph 1021.4mb 49f 60f
6:00 6 7 mph 1021.5mb 50f 61f
5:36 7 9 mph 1021.5mb 50f 61f
5:30 7 9 mph 1021.5mb 50f 60f
5:24 7 9 mph 1021.6mb 50f 61f
5:18 8 9 mph 1021.6mb 50f 60f
5:12 7 10 mph 1021.6mb 50f 61f
5:06 7 9 mph 1021.6mb 50f 60f
5:00 8 9 mph 1021.6mb 50f 60f
4:54 7 10 mph 1021.6mb 50f 60f
4:48 8 10 mph 1021.6mb 50f 60f
4:36 7 9 mph 1021.7mb 50f 60f
4:30 7 8 mph 1021.7mb 50f 60f
4:24 7 9 mph 1021.6mb 50f 60f
4:18 7 9 mph 1021.7mb 51f 60f
4:12 8 9 mph 1021.7mb 50f 60f
4:06 7 9 mph 1021.7mb 50f 60f
4:00 7 9 mph 1021.7mb 50f 60f
3:54 8 10 mph 1021.7mb 50f 60f
3:48 8 11 mph 1021.8mb 51f 60f
3:36 8 9 mph 1021.8mb 50f 60f
3:30 8 9 mph 1021.8mb 50f 60f
3:24 7 9 mph 1021.8mb 50f 60f
3:18 6 10 mph 1021.8mb 50f 60f
3:12 7 9 mph 1021.8mb 50f 60f
3:06 7 10 mph 1021.9mb 50f 60f
3:00 8 10 mph 1021.9mb 50f 60f
2:54 8 10 mph 1021.9mb 50f 60f
2:48 8 13 mph 1021.9mb 50f 60f
2:36 9 13 mph 1021.8mb 50f 61f
2:30 9 13 mph 1021.8mb 50f 61f
2:24 9 10 mph 1021.8mb 50f 60f
2:18 9 11 mph 1021.8mb 50f 60f
2:12 9 13 mph 1021.8mb 50f 60f
2:06 8 13 mph 1021.8mb 50f 60f
2:00 9 11 mph 1021.8mb 50f 60f
1:54 10 11 mph 1021.8mb 50f 60f
1:48 9 11 mph 1021.7mb 50f 60f
1:36 9 11 mph 1021.6mb 50f 60f
1:30 9 11 mph 1021.6mb 50f 60f
1:24 9 11 mph 1021.6mb 50f 60f
1:18 10 13 mph 1021.6mb 50f 60f
1:12 9 11 mph 1021.6mb 50f 60f
1:06 10 14 mph 1021.5mb 50f 60f
1:00 10 13 mph 1021.5mb 50f 60f
12:54 9 13 mph 1021.4mb 50f 60f
12:48 10 11 mph 1021.4mb 50f 60f
12:36 9 11 mph 1021.4mb 50f 60f
12:30 9 11 mph 1021.4mb 50f 59f
12:24 9 11 mph 1021.3mb 50f 59f
12:18 8 10 mph 1021.3mb 50f 59f
12:12 9 11 mph 1021.3mb 50f 60f
12:06 8 10 mph 1021.2mb 50f 59f
12:00 9 11 mph 1021.2mb 50f 58f
11:54 7 10 mph 1021.2mb 50f 58f
11:48 6 8 mph 1021.1mb 50f 58f
11:36 6 7 mph 1021.1mb 50f 58f
11:30 5 7 mph 1021mb 51f 57f
11:24 7 9 mph 1021mb 51f 57f
11:18 8 9 mph 1020.9mb 51f 58f
11:12 7 10 mph 1020.9mb 51f 58f
11:06 7 11 mph 1020.7mb 50f 58f
11:00 8 10 mph 1020.7mb 50f 58f
10:54 8 10 mph 1020.6mb 50f 58f
10:48 7 9 mph 1020.5mb 50f 59f
10:36 8 9 mph 1020.4mb 50f 59f
10:30 7 9 mph 1020.3mb 50f 58f
10:24 7 9 mph 1020.2mb 50f 58f
10:18 5 6 mph 1020.1mb 50f 58f
10:12 5 6 mph 1020.1mb 50f 57f
10:06 5 6 mph 1020.1mb 50f 57f
10:00 5 6 mph 1020mb 50f 57f
9:54 5 7 mph 1020mb 50f 57f
9:48 6 7 mph 1020mb 50f 57f
9:36 6 7 mph 1019.9mb 50f 57f
9:30 5 6 mph 1019.9mb 50f 57f
9:24 5 8 mph 1019.9mb 50f 57f
9:18 6 8 mph 1019.9mb 51f 57f
9:12 7 8 mph 1019.9mb 50f 57f
9:06 7 9 mph 1019.9mb 50f 57f
9:00 7 9 mph 1019.8mb 50f 57f
8:54 6 10 mph 1019.8mb 50f 57f
8:48 7 8 mph 1019.8mb 50f 58f
8:36 6 8 mph 1019.6mb 51f 57f
8:30 8 11 mph 1019.6mb 50f 57f
8:24 8 10 mph 1019.5mb 50f 58f
8:18 6 9 mph 1019.5mb 51f 58f
8:12 6 9 mph 1019.4mb 50f 57f
8:06 5 8 mph 1019.4mb 50f 57f
8:00 5 11 mph 1019.3mb 50f 57f
7:54 8 9 mph 1019.3mb 51f 58f
7:48 6 8 mph 1019.2mb 51f 58f
7:36 5 6 mph 1019.1mb 51f 58f
7:30 2 3 mph 1019mb 51f 58f
7:24 3 5 mph 1019mb 51f 58f
7:18 3 6 mph 1019mb 51f 58f
7:12 6 6 mph 1019mb 51f 58f
7:06 3 5 mph 1019mb 51f 58f
7:00 3 5 mph 1019mb 51f 58f
6:54 2 5 mph 1019mb 52f 58f
6:48 2 3 mph 1019mb 52f 58f
6:36 3 6 mph 1018.8mb 52f 58f
6:30 5 5 mph 1018.8mb 53f 58f
6:24 5 6 mph 1018.7mb 53f 58f
6:18 5 7 mph 1018.7mb 54f 59f
6:12 5 6 mph 1018.6mb 55f 58f
6:06 2 5 mph 1018.6mb 56f 58f
6:00 5 6 mph 1018.6mb 57f 58f
5:54 3 6 mph 1018.6mb 57f 59f
5:48 3 6 mph 1018.5mb 58f 59f
5:36 3 7 mph 1018.4mb 58f 59f
5:30 6 8 mph 1018.4mb 58f 59f
5:24 7 9 mph 1018.3mb 58f 58f
5:18 5 6 mph 1018.3mb 58f 58f
5:12 5 10 mph 1018.2mb 59f 58f
5:06 9 11 mph 1018.1mb 59f 58f
5:00 6 8 mph 1018mb 59f 58f
4:54 8 17 mph 1017.9mb 59f 57f
4:48 15 22 mph 1017.7mb 59f 58f
4:36 9 16 mph 1017.6mb 59f 59f
4:30 11 17 mph 1017.5mb 59f 59f
4:24 9 16 mph 1017.5mb 59f 59f
4:18 11 16 mph 1017.5mb 59f 59f
4:12 10 17 mph 1017.5mb 59f 59f
4:06 8 13 mph 1017.4mb 59f 59f
4:00 8 13 mph 1017.4mb 59f 59f
3:54 8 13 mph 1017.3mb 59f 59f
3:48 9 14 mph 1017.4mb 59f 59f
3:36 9 11 mph 1017.3mb 59f 58f
3:30 7 11 mph 1017.3mb 59f 58f
3:24 6 10 mph 1017.3mb 59f 58f
3:18 5 10 mph 1017.3mb 59f 58f
3:12 7 10 mph 1017.3mb 58f 58f
3:06 5 10 mph 1017.3mb 58f 58f
3:00 6 11 mph 1017.3mb 58f 58f
2:54 6 10 mph 1017.3mb 58f 58f
2:48 6 10 mph 1017.3mb 57f 58f
2:36 8 14 mph 1017.4mb 56f 58f
2:30 7 11 mph 1017.4mb 55f 58f
2:24 5 9 mph 1017.5mb 54f 58f
2:18 6 10 mph 1017.4mb 52f 59f
2:12 8 13 mph 1017.5mb 52f 59f
2:06 9 15 mph 1017.4mb 52f 59f
2:00 9 16 mph 1017.4mb 52f 59f
1:54 10 14 mph 1017.4mb 51f 59f
1:48 10 17 mph 1017.4mb 51f 59f
1:36 8 13 mph 1017.3mb 51f 59f
1:30 5 11 mph 1017.4mb 51f 59f
1:24 8 10 mph 1017.4mb 51f 59f
1:18 5 10 mph 1017.4mb 51f 59f
1:12 6 9 mph 1017.4mb 51f 59f
1:06 6 9 mph 1017.5mb 51f 60f
1:00 5 11 mph 1017.4mb 51f 60f
12:54 5 9 mph 1017.4mb 51f 60f
12:48 5 9 mph 1017.4mb 51f 60f
12:36 5 6 mph 1017.5mb 50f 60f
12:30 5 7 mph 1017.5mb 50f 60f
12:24 6 8 mph 1017.5mb 50f 60f
12:18 3 8 mph 1017.5mb 50f 60f
12:12 5 10 mph 1017.5mb 50f 60f
12:06 5 8 mph 1017.5mb 50f 60f
12:00 3 6 mph 1017.5mb 51f 60f
mer. 07/19 11:54 3 7 mph 1017.6mb 51f 60f
11:48 3 6 mph 1017.6mb 51f 60f
11:36 3 6 mph 1017.6mb 51f 60f
11:30 2 6 mph 1017.6mb 51f 60f
11:24 3 6 mph 1017.7mb 51f 60f
11:18 2 5 mph 1017.6mb 51f 60f
11:12 2 6 mph 1017.6mb 51f 60f
11:06 3 6 mph 1017.6mb 51f 60f
11:00  -  5 mph 1017.6mb 51f 60f
10:54 2 5 mph 1017.7mb 51f 60f
10:48 3 7 mph 1017.7mb 51f 60f
10:36 3 7 mph 1017.6mb 51f 60f
10:30 3 6 mph 1017.6mb 51f 60f
10:24 2 5 mph 1017.7mb 51f 60f
10:18 5 6 mph 1017.8mb 51f 60f
10:12 3 7 mph 1017.8mb 51f 60f
10:06 3 6 mph 1017.8mb 51f 60f
10:00 3 5 mph 1017.8mb 51f 60f
9:54 2 5 mph 1017.8mb 51f 60f
9:48 2 5 mph 1017.8mb 51f 60f
9:36 3 7 mph 1017.7mb 51f 60f
9:30 5 8 mph 1017.7mb 51f 60f
9:24 5 7 mph 1017.7mb 51f 60f
9:18 3 8 mph 1017.7mb 51f 60f
9:12 5 7 mph 1017.7mb 50f 60f
9:06 2 5 mph 1017.7mb 50f 60f
9:00 3 6 mph 1017.7mb 50f 60f
8:54 2 5 mph 1017.7mb 50f 60f
8:48 3 5 mph 1017.7mb 50f 60f
8:36 3 5 mph 1017.7mb 50f 60f
8:30 3 6 mph 1017.8mb 50f 60f
8:24 3 7 mph 1017.7mb 50f 60f
8:18 3 7 mph 1017.7mb 50f 60f
8:12 3 7 mph 1017.7mb 50f 61f
8:06 6 7 mph 1017.7mb 50f 61f
8:00 5 7 mph 1017.7mb 49f 61f
7:54 6 8 mph 1017.8mb 49f 61f
7:48 7 9 mph 1017.8mb 49f 61f
7:36 6 8 mph 1017.8mb 49f 61f
7:30 6 8 mph 1017.9mb 49f 61f
7:24 6 8 mph 1018mb 49f 61f
7:18 6 7 mph 1017.9mb 49f 61f
7:12 6 7 mph 1018mb 49f 61f
7:06 6 7 mph 1018mb 49f 61f
7:00 5 6 mph 1017.9mb 49f 61f
6:54 5 7 mph 1017.9mb 48f 61f
6:48 5 6 mph 1017.9mb 48f 61f
6:36 6 7 mph 1017.9mb 48f 60f
6:30 5 7 mph 1018mb 48f 61f
6:24 3 6 mph 1018mb 48f 61f
6:18 5 6 mph 1018mb 48f 61f
6:12 5 6 mph 1018.1mb 48f 60f
6:06 5 6 mph 1018.2mb 48f 60f
6:00 5 6 mph 1018.2mb 48f 61f
5:54 6 6 mph 1018.3mb 48f 60f
5:48 5 7 mph 1018.3mb 48f 61f
5:36 3 5 mph 1018.3mb 48f 60f
5:30 3 5 mph 1018.3mb 49f 60f
5:24 3 5 mph 1018.4mb 49f 60f
5:18 2 5 mph 1018.5mb 49f 60f
5:12 2 3 mph 1018.5mb 49f 60f
5:06 2 3 mph 1018.6mb 49f 60f
5:00 2 5 mph 1018.6mb 49f 60f
4:54 3 5 mph 1018.8mb 49f 60f
4:48 3 6 mph 1018.8mb 49f 60f
4:36 3 3 mph 1018.9mb 49f 60f
4:30 2 3 mph 1018.9mb 48f 60f
4:24 2 5 mph 1019mb 49f 60f
4:18 3 5 mph 1019.1mb 49f 60f
4:12 3 6 mph 1019.2mb 49f 60f
4:06 3 5 mph 1019.2mb 49f 59f
4:00 5 6 mph 1019.2mb 49f 59f
3:54 2 6 mph 1019.2mb 49f 59f
3:48 5 6 mph 1019.2mb 49f 59f
3:36 3 5 mph 1019.3mb 49f 59f
3:30 3 3 mph 1019.3mb 49f 59f
3:24 5 6 mph 1019.3mb 49f 59f
3:18 3 5 mph 1019.3mb 49f 59f
3:12 3 6 mph 1019.4mb 49f 59f
3:06 3 5 mph 1019.4mb 49f 59f
3:00 3 5 mph 1019.4mb 49f 59f
2:54 3 5 mph 1019.5mb 49f 59f
2:48 2 3 mph 1019.4mb 48f 59f
2:36 3 5 mph 1019.6mb 49f 59f
2:30 3 5 mph 1019.5mb 49f 58f
2:24 3 5 mph 1019.5mb 48f 59f
2:18 5 7 mph 1019.6mb 48f 59f
2:12 5 7 mph 1019.6mb 48f 59f
2:06 6 7 mph 1019.7mb 48f 59f
2:00 5 7 mph 1019.7mb 48f 58f
1:54 5 8 mph 1019.7mb 48f 58f
1:48 6 8 mph 1019.7mb 48f 58f
1:36 6 10 mph 1019.7mb 48f 59f
1:30 7 9 mph 1019.7mb 48f 59f
1:24 7 10 mph 1019.7mb 48f 59f
1:18 7 10 mph 1019.7mb 48f 59f
1:12 10 11 mph 1019.8mb 48f 59f
1:06 8 11 mph 1019.8mb 48f 59f
1:00 10 13 mph 1019.9mb 48f 60f
12:54 9 11 mph 1019.8mb 48f 60f
12:48 8 10 mph 1019.8mb 48f 60f
12:36 6 8 mph 1019.7mb 47f 60f
12:30 6 7 mph 1019.7mb 47f 60f
12:24 6 8 mph 1019.7mb 47f 60f
12:18 8 10 mph 1019.7mb 47f 60f
12:12 8 9 mph 1019.7mb 47f 61f
12:06 6 7 mph 1019.8mb 47f 61f
12:00 5 6 mph 1019.8mb 47f 61f
11:54 3 6 mph 1019.8mb 47f 61f
11:48 3 5 mph 1019.8mb 47f 61f
11:36 2 2 mph 1019.8mb 47f 61f
11:30 2 3 mph 1019.8mb 47f 61f
11:24 2 2 mph 1019.8mb 47f 61f
11:18 2 3 mph 1019.8mb 47f 61f
11:12 2 3 mph 1019.8mb 47f 62f
11:06  -  2 mph 1019.8mb 47f 62f
11:00 1 2 mph 1019.8mb 47f 62f
10:54  -  2 mph 1019.9mb 47f 62f
10:48 1 3 mph 1019.9mb 47f 61f
10:36 2 3 mph 1020mb 47f 62f
10:30  -  2 mph 1019.9mb 47f 61f
10:24 2 6 mph 1019.9mb 47f 61f
10:18 3 7 mph 1019.9mb 47f 60f
10:12 6 7 mph 1019.9mb 47f 59f
10:06 3 7 mph 1020mb 47f 58f
10:00 6 7 mph 1020mb 47f 58f
9:54 5 8 mph 1020mb 47f 57f
9:48 5 7 mph 1020.1mb 48f 57f
9:36 6 7 mph 1020.1mb 48f 55f
9:30 6 7 mph 1020.1mb 48f 55f
9:24 6 7 mph 1020.2mb 48f 55f
9:18 6 8 mph 1020.2mb 48f 55f
9:12 6 7 mph 1020.2mb 48f 54f
9:06 5 7 mph 1020.1mb 48f 54f
9:00 6 7 mph 1020.2mb 48f 54f
8:54 5 8 mph 1020.2mb 48f 53f
8:48 6 8 mph 1020.2mb 48f 53f
8:36 6 9 mph 1020.3mb 47f 52f
8:30 7 9 mph 1020.4mb 48f 52f
8:24 7 10 mph 1020.3mb 48f 52f
8:18 8 10 mph 1020.3mb 48f 51f
8:12 8 10 mph 1020.3mb 48f 51f
8:06 10 13 mph 1020.3mb 48f 51f
8:00 8 9 mph 1020.3mb 48f 51f
7:54 7 9 mph 1020.3mb 48f 50f
7:48 7 9 mph 1020.3mb 48f 50f
7:36 8 9 mph 1020.4mb 48f 50f
7:30 8 10 mph 1020.4mb 49f 50f
7:24 8 10 mph 1020.4mb 49f 50f
7:18 8 10 mph 1020.4mb 48f 49f
7:12 8 10 mph 1020.4mb 48f 49f
7:06 8 10 mph 1020.3mb 48f 49f
7:00 9 11 mph 1020.3mb 48f 49f
6:54 8 10 mph 1020.2mb 49f 49f
6:48 8 9 mph 1020.3mb 49f 49f
6:36 8 10 mph 1020.2mb 49f 49f
6:30 8 10 mph 1020.2mb 49f 49f
6:24 8 9 mph 1020.2mb 49f 49f
6:18 8 10 mph 1020.1mb 49f 49f
6:12 9 10 mph 1020.1mb 50f 49f
6:06 9 10 mph 1020.1mb 50f 49f
6:00 8 10 mph 1020.1mb 50f 49f
5:54 8 9 mph 1020.1mb 50f 49f
5:48 8 10 mph 1020.1mb 50f 49f
5:36 8 9 mph 1020mb 51f 49f
5:30 7 9 mph 1020mb 51f 50f
5:24 8 9 mph 1019.9mb 51f 49f
5:18 6 8 mph 1019.8mb 51f 49f
5:12 7 8 mph 1019.8mb 52f 50f
5:06 7 9 mph 1019.8mb 53f 50f
5:00 7 9 mph 1019.8mb 53f 50f
4:54 6 8 mph 1019.8mb 54f 50f
4:48 6 8 mph 1019.8mb 55f 50f
4:36 7 9 mph 1019.8mb 56f 50f
4:30 7 9 mph 1019.8mb 57f 50f
4:24 7 9 mph 1019.7mb 57f 50f
4:18 6 8 mph 1019.7mb 57f 50f
4:12 7 8 mph 1019.6mb 58f 50f
4:06 7 8 mph 1019.6mb 58f 50f
4:00 7 8 mph 1019.6mb 58f 50f
3:54 7 9 mph 1019.5mb 58f 50f
3:48 6 8 mph 1019.5mb 58f 50f
3:36 7 9 mph 1019.4mb 58f 51f
3:30 7 9 mph 1019.5mb 58f 51f
3:24 7 8 mph 1019.5mb 58f 51f
3:18 6 8 mph 1019.6mb 59f 51f
3:12 6 9 mph 1019.6mb 59f 51f
3:06 7 9 mph 1019.6mb 59f 51f
3:00 8 10 mph 1019.5mb 59f 51f
2:54 7 9 mph 1019.5mb 59f 51f
2:48 8 9 mph 1019.5mb 59f 51f
2:36 6 8 mph 1019.6mb 59f 51f
2:30 6 7 mph 1019.6mb 59f 51f
2:24 6 7 mph 1019.6mb 59f 52f
2:18 6 7 mph 1019.6mb 59f 51f
2:12 5 6 mph 1019.5mb 58f 52f
2:06 5 7 mph 1019.5mb 58f 52f
2:00 6 7 mph 1019.4mb 58f 52f
1:54 6 6 mph 1019.4mb 58f 52f
1:48 5 6 mph 1019.5mb 57f 52f
1:36 6 7 mph 1019.5mb 55f 53f
1:30 6 6 mph 1019.6mb 54f 53f
1:24 5 6 mph 1019.6mb 52f 53f
1:18 5 6 mph 1019.6mb 52f 53f
1:12 5 6 mph 1019.6mb 51f 53f
1:06 5 6 mph 1019.6mb 51f 53f
1:00 5 6 mph 1019.6mb 51f 53f
12:54 5 6 mph 1019.7mb 51f 52f
12:48 3 6 mph 1019.7mb 50f 52f
12:36 6 6 mph 1019.6mb 50f 53f
12:30 6 6 mph 1019.6mb 49f 53f
12:24 5 6 mph 1019.6mb 49f 53f
12:18 5 6 mph 1019.7mb 49f 53f
12:12 5 5 mph 1019.6mb 49f 53f
12:06 5 6 mph 1019.6mb 49f 54f
12:00 5 6 mph 1019.5mb 48f 54f
mar. 07/18 11:54 5 6 mph 1019.5mb 48f 54f
11:48 5 6 mph 1019.4mb 48f 54f
11:36 3 3 mph 1019.5mb 48f 54f
11:30 2 3 mph 1019.6mb 48f 54f
11:24 2 3 mph 1019.5mb 48f 55f
11:18 2 5 mph 1019.5mb 48f 55f
11:12 3 5 mph 1019.5mb 48f 55f
11:06 2 2 mph 1019.5mb 48f 55f
11:00 2 3 mph 1019.5mb 48f 55f
10:54 3 3 mph 1019.5mb 48f 56f
10:48 2 2 mph 1019.5mb 48f 56f
10:36 1 2 mph 1019.4mb 48f 56f
10:30 1 2 mph 1019.4mb 48f 56f
10:24 1 2 mph 1019.3mb 48f 56f
10:18 1 2 mph 1019.3mb 48f 56f
10:12  -  1 mph 1019.3mb 48f 57f
10:06  -  1 mph 1019.3mb 48f 57f
10:00  -  1 mph 1019.2mb 48f 57f
9:54  -  2 mph 1019.1mb 48f 57f
9:48 2 2 mph 1019.1mb 48f 57f
9:36 2 3 mph 1018.9mb 48f 58f
9:30 2 3 mph 1018.9mb 48f 58f
9:24 2 3 mph 1018.8mb 48f 58f
9:18 3 5 mph 1018.8mb 47f 58f
9:12 3 5 mph 1018.8mb 47f 58f
9:06 3 5 mph 1018.8mb 47f 58f
9:00 3 5 mph 1018.8mb 47f 58f
8:54 3 5 mph 1018.8mb 47f 58f
8:48 3 5 mph 1018.8mb 47f 58f
8:36 5 6 mph 1018.8mb 48f 58f
8:30 5 6 mph 1018.8mb 47f 58f
8:24 6 9 mph 1018.8mb 47f 58f
8:18 3 5 mph 1018.8mb 47f 58f
8:12 5 6 mph 1018.9mb 47f 58f
8:06 3 6 mph 1018.9mb 47f 58f
8:00 5 6 mph 1018.8mb 47f 58f
7:54 5 6 mph 1018.8mb 47f 58f
7:48 3 6 mph 1018.7mb 47f 58f
7:36 5 6 mph 1018.7mb 47f 58f
7:30 5 6 mph 1018.7mb 47f 58f
7:24 5 6 mph 1018.7mb 47f 58f
7:18 5 7 mph 1018.7mb 47f 58f
7:12 6 7 mph 1018.7mb 47f 58f
7:06 6 8 mph 1018.6mb 47f 59f
7:00 6 8 mph 1018.6mb 47f 58f
6:54 6 8 mph 1018.5mb 47f 58f
6:48 7 8 mph 1018.6mb 47f 58f
6:36 6 9 mph 1018.6mb 47f 58f
6:30 7 9 mph 1018.6mb 47f 58f
6:24 7 9 mph 1018.6mb 47f 58f
6:18 7 9 mph 1018.6mb 47f 58f
6:12 7 10 mph 1018.6mb 46f 58f
6:06 8 9 mph 1018.7mb 46f 58f
6:00 7 9 mph 1018.7mb 46f 58f
5:54 8 9 mph 1018.8mb 46f 58f
5:48 8 9 mph 1018.7mb 46f 58f
5:36 7 8 mph 1018.8mb 47f 58f
5:30 7 9 mph 1018.8mb 47f 58f
5:24 7 9 mph 1018.7mb 46f 58f
5:18 7 9 mph 1018.7mb 47f 58f
5:12 7 9 mph 1018.7mb 47f 58f
5:06 7 9 mph 1018.7mb 47f 58f
5:00 8 10 mph 1018.7mb 47f 58f
4:54 8 10 mph 1018.7mb 47f 58f
4:48 9 10 mph 1018.7mb 47f 58f
4:36 9 10 mph 1018.7mb 47f 58f
4:30 8 10 mph 1018.6mb 47f 58f
4:24 8 11 mph 1018.6mb 47f 58f
4:18 9 11 mph 1018.6mb 47f 58f
4:12 9 11 mph 1018.6mb 47f 58f
4:06 8 10 mph 1018.6mb 48f 58f
4:00 8 11 mph 1018.5mb 47f 58f
3:54 7 9 mph 1018.6mb 48f 58f
3:48 6 9 mph 1018.5mb 48f 58f
3:36 8 9 mph 1018.5mb 48f 57f
3:30 8 10 mph 1018.5mb 48f 57f
3:24 8 9 mph 1018.6mb 48f 58f
3:18 8 9 mph 1018.6mb 48f 57f
3:12 7 9 mph 1018.5mb 48f 57f
3:06 8 9 mph 1018.5mb 48f 57f
3:00 7 8 mph 1018.6mb 48f 57f
2:54 8 9 mph 1018.6mb 48f 56f
2:36 7 9 mph 1018.6mb 49f 56f
2:30 8 9 mph 1018.5mb 49f 56f
2:24 7 9 mph 1018.5mb 49f 57f
2:18 7 9 mph 1018.5mb 49f 56f
2:12 8 9 mph 1018.5mb 49f 56f
2:06 7 9 mph 1018.6mb 49f 56f
2:00 7 9 mph 1018.6mb 49f 56f
1:54 9 10 mph 1018.6mb 49f 56f
1:48 9 10 mph 1018.6mb 48f 56f
1:36 9 11 mph 1018.6mb 48f 56f
1:30 9 10 mph 1018.6mb 48f 56f
1:24 8 10 mph 1018.6mb 48f 56f
1:18 9 11 mph 1018.5mb 48f 56f
1:12 9 11 mph 1018.5mb 48f 56f
1:06 10 13 mph 1018.5mb 48f 56f
1:00 10 11 mph 1018.5mb 48f 56f
12:54 10 11 mph 1018.5mb 48f 56f
12:48 9 10 mph 1018.5mb 48f 56f
12:36 9 10 mph 1018.5mb 47f 56f
12:30 8 10 mph 1018.5mb 47f 56f
12:24 9 10 mph 1018.5mb 47f 56f
12:18 8 10 mph 1018.5mb 47f 56f
12:12 8 9 mph 1018.5mb 47f 56f
12:06 8 9 mph 1018.5mb 46f 56f
12:00 8 9 mph 1018.6mb 46f 56f
11:54 7 9 mph 1018.5mb 46f 56f
11:48 8 9 mph 1018.5mb 46f 56f
11:36 7 8 mph 1018.4mb 46f 56f
11:30 7 8 mph 1018.4mb 46f 56f
11:24 7 8 mph 1018.3mb 46f 56f
11:18 7 8 mph 1018.3mb 46f 56f
11:12 7 8 mph 1018.3mb 46f 56f
11:06 6 7 mph 1018.2mb 46f 56f
11:00 6 7 mph 1018.3mb 46f 56f
10:54 6 6 mph 1018.3mb 46f 56f
10:48 5 7 mph 1018.3mb 46f 56f
10:36 6 7 mph 1018.2mb 46f 56f
10:30 6 8 mph 1018.3mb 46f 56f
10:24 7 8 mph 1018.3mb 46f 56f
10:18 8 9 mph 1018.3mb 46f 56f
10:12 6 7 mph 1018.3mb 46f 56f
10:06 6 6 mph 1018.3mb 46f 56f
10:00 5 6 mph 1018.3mb 46f 56f
9:54 5 7 mph 1018.3mb 46f 56f
9:48 6 7 mph 1018.3mb 46f 56f
9:36 6 7 mph 1018.3mb 46f 56f
9:30 3 5 mph 1018.4mb 46f 56f
9:24 3 5 mph 1018.4mb 46f 56f
9:18 3 5 mph 1018.3mb 46f 57f
9:12 2 3 mph 1018.3mb 46f 57f
9:06 2 5 mph 1018.3mb 46f 56f
9:00 3 5 mph 1018.2mb 46f 57f
8:54 1 3 mph 1018.2mb 46f 56f
8:48 3 6 mph 1018.2mb 46f 55f
8:36 5 6 mph 1018.2mb 47f 54f
8:30 5 7 mph 1018.2mb 46f 53f
8:24 6 7 mph 1018.2mb 46f 53f
8:18 6 8 mph 1018.2mb 47f 53f
8:12 7 8 mph 1018.2mb 47f 52f
8:06 6 9 mph 1018.2mb 47f 51f
8:00 6 8 mph 1018.2mb 47f 51f
7:54 6 8 mph 1018.2mb 47f 51f
7:48 6 9 mph 1018.3mb 48f 50f
7:36 6 9 mph 1018.2mb 48f 50f
7:30 7 9 mph 1018.2mb 48f 49f
7:24 7 8 mph 1018.2mb 47f 49f
7:18 7 8 mph 1018.1mb 47f 49f
7:12 7 9 mph 1018mb 47f 49f
7:06 7 8 mph 1017.9mb 47f 49f
7:00 6 9 mph 1017.9mb 47f 49f
6:54 7 10 mph 1017.8mb 47f 48f
6:48 7 8 mph 1017.9mb 47f 48f
6:36 7 8 mph 1017.9mb 47f 48f
6:30 6 9 mph 1018mb 47f 48f
6:24 7 9 mph 1017.9mb 47f 47f
6:18 7 10 mph 1017.9mb 47f 47f
6:12 7 9 mph 1017.9mb 47f 48f
6:06 7 9 mph 1017.9mb 47f 48f
6:00 8 9 mph 1017.8mb 47f 48f
5:54 7 9 mph 1017.8mb 47f 48f
5:48 7 9 mph 1017.8mb 47f 48f
5:36 7 9 mph 1017.7mb 47f 48f
5:30 7 8 mph 1017.7mb 48f 48f
5:24 7 9 mph 1017.7mb 47f 48f
5:18 6 8 mph 1017.7mb 48f 48f
5:12 6 8 mph 1017.7mb 48f 48f
5:06 7 9 mph 1017.7mb 48f 48f
5:00 8 10 mph 1017.7mb 48f 48f
4:54 8 10 mph 1017.7mb 48f 49f
4:48 7 9 mph 1017.7mb 48f 49f
4:36 9 10 mph 1017.7mb 49f 49f
4:30 7 9 mph 1017.8mb 49f 48f
4:24 8 9 mph 1017.8mb 49f 48f
4:18 7 9 mph 1017.8mb 49f 48f
4:12 7 10 mph 1017.8mb 49f 48f
4:06 7 9 mph 1017.8mb 49f 48f
4:00 7 9 mph 1017.8mb 50f 48f
3:54 7 9 mph 1017.8mb 50f 48f
3:48 6 8 mph 1017.8mb 51f 48f
3:36 6 9 mph 1017.9mb 51f 48f
3:30 6 8 mph 1017.9mb 52f 48f
3:24 6 7 mph 1017.9mb 52f 49f
3:18 6 7 mph 1017.9mb 53f 49f
3:12 6 7 mph 1017.8mb 53f 49f
3:06 7 8 mph 1017.9mb 54f 49f
3:00 6 7 mph 1017.9mb 54f 49f
2:54 6 7 mph 1017.8mb 55f 49f
2:48 6 6 mph 1017.8mb 55f 49f
2:36 5 6 mph 1017.7mb 56f 49f
2:30 3 5 mph 1017.8mb 56f 49f
2:24 5 5 mph 1017.8mb 57f 49f
2:18 5 6 mph 1017.8mb 57f 50f
2:12 5 6 mph 1017.8mb 57f 49f
2:06 3 5 mph 1017.9mb 58f 49f
2:00 5 5 mph 1017.8mb 58f 49f
1:54 5 5 mph 1017.8mb 58f 50f
1:48 3 6 mph 1017.9mb 57f 50f
1:36 5 6 mph 1017.9mb 58f 50f
1:30 3 6 mph 1018mb 58f 51f
1:24 5 6 mph 1018mb 58f 51f
1:18 5 6 mph 1017.9mb 57f 51f
1:12 5 6 mph 1017.9mb 57f 51f
1:06 5 6 mph 1017.9mb 57f 51f
1:00 5 6 mph 1018mb 56f 51f